Symphonie 2 Rocket - Orbit

View from above orbital plane
View from above orbital plane
View from above satellite
View from above satellite

Ground track
Ground track

The orbit data is extracted from the following two-line orbital elements,

1 08133U 75077B   13139.71080233  .00207849  17152-5  95172-3 0   700
2 08133 025.2943 258.6786 0063761 250.5790 219.3112 15.78951916949660
Epoch (UTC): 19 May 2013 17:03:33
Eccentricity: 0.0063761
inclination: 25.2943°
perigee height: 290 km
apogee height: 376 km
right ascension of ascending node: 258.6786°
argument of perigee: 250.5790°
revolutions per day: 15.78951916
mean anomaly at epoch: 219.3112°
orbit number at epoch: 94966

The dashed part of the orbit path shows where the satellite is in the earth's shadow,  

Developed and maintained by Chris Peat, Heavens-Above GmbH. Please read the updated FAQ before sending e-mail. Imprint. DLR